Tracking 19909 objects as of 22-Oct-2019
HD Live streaming from Space Station
objects crossing your sky now

COSMOS 397 DEB *

Track COSMOS 397 DEB * now!
10-day predictions


NORAD ID: 5414
Int'l Code: 1971-015BL
Perigee: 835.1 km
Apogee: 953.4 km
Inclination: 66.8 °
Period: 102.7 minutes
Semi major axis: 7265 km
RCS: 0.0112 m2 (small)
Launch date: February 25, 1971
Source: Commonwealth of Independent States (former USSR) (CIS)
Launch site: TYURATAM MISSILE AND SPACE COMPLEX (TTMTR)

Note: This is SATELLITE DEBRIS
aabbcc
Your satellite tracking list
Your tracking list is empty




NASA's NSSDC Master Catalog

Two Line Element Set (TLE):
1  5414U 71015BL  19295.23349555 -.00000067  00000-0  77290-5 0  9994
2  5414  66.7695 350.6084 0081431 160.3986 200.0261 14.01937071484898
Source of the keplerian elements: AFSPC